Weather History for PAMR - February, 2014

Change the Weather History Date:

Wednesday, February 12, 2014

  Actual Average Record
Temperature  
Mean Temperature 6 °F -  
Max Temperature 12 °F 26 °F 30 °F (2015)
Min Temperature 1 °F 13 °F 1 °F (2014)
Degree Days  
Heating Degree Days 58    
Moisture  
Dew Point -3 °F    
Average Humidity 65    
Maximum Humidity 80    
Minimum Humidity 39    
Precipitation  
Precipitation 0.00 in - - ()
Sea Level Pressure  
Sea Level Pressure 29.23 in    
Wind  
Wind Speed 2 mph (North)    
Max Wind Speed 8 mph    
Max Gust Speed -    
Visibility 7 miles    
Events Snow    
Averages and records for this station are not official NWS values.
T = Trace of Precipitation, MM = Missing Value Source: NWS Daily Summary

Daily Weather History Graph

Daily Weather History Graph

Search for Another Location

Airport or City:

Trip Planner

Search our weather history database for the weather conditions in past years. The results will help you decide how hot, cold, wet, or windy it might be!

Date:

Astronomy

Feb. 12, 2014 Rise Set
Actual Time 8:49 AM AKST 5:38 PM AKST
Civil Twilight 8:03 AM AKST 6:25 PM AKST
Nautical Twilight 7:12 AM AKST 7:16 PM AKST
Astronomical Twilight 6:22 AM AKST 8:06 PM AKST
Moon 3:50 PM AKST (2/12) 7:27 AM AKST (2/12)
Length of Visible Light 10h 21m
Length of Day
8h 48m
Waxing Gibbous, 96% of the Moon is Illuminated
Feb 12
Waxing Gibbous
Feb 14
Full
Feb 22
Last Quarter
Feb 28
New
Mar 8
First Quarter

Hourly Weather History & Observations

Time (AKST) Temp. Windchill Dew Point Humidity Pressure Visibility Wind Dir Wind Speed Gust Speed Precip Events Conditions
12:53 AM 1.9 °F - -4.0 °F 76% 29.45 in 10.0 mi Calm Calm - N/A   Overcast
1:53 AM 1.0 °F - -4.0 °F 79% 29.43 in 10.0 mi Calm Calm - N/A   Overcast
3:53 AM 1.9 °F - -4.0 °F 76% 29.39 in 10.0 mi Calm Calm - N/A   Overcast
4:53 AM 1.0 °F - -5.1 °F 75% 29.38 in 10.0 mi Calm Calm - N/A   Overcast
5:53 AM 3.9 °F - -2.9 °F 73% 29.35 in 10.0 mi Calm Calm - N/A   Overcast
6:53 AM 3.9 °F -3.4 °F -4.0 °F 70% 29.34 in 10.0 mi ESE 3.5 mph - N/A   Overcast
7:53 AM 3.0 °F - -4.0 °F 73% 29.32 in 10.0 mi Calm Calm - N/A   Mostly Cloudy
8:53 AM 3.0 °F - -4.0 °F 73% 29.31 in 10.0 mi Calm Calm - N/A   Mostly Cloudy
9:53 AM 5.0 °F -2.1 °F -2.0 °F 73% 29.32 in 10.0 mi NE 3.5 mph - N/A   Mostly Cloudy
10:53 AM 8.1 °F - -4.0 °F 58% 29.31 in 9.0 mi Calm Calm - N/A   Scattered Clouds
11:53 AM 10.0 °F - -5.1 °F 51% 29.28 in 10.0 mi Calm Calm - N/A   Clear
12:53 PM 10.9 °F - -2.9 °F 54% 29.26 in 10.0 mi North - - N/A   Clear
1:53 PM 12.0 °F 0.5 °F -8.0 °F 41% 29.22 in 10.0 mi NNW 8.1 mph - N/A   Clear
2:53 PM 12.9 °F 1.6 °F -8.0 °F 39% 29.19 in 10.0 mi NNW 8.1 mph - N/A   Mostly Cloudy
3:53 PM 12.0 °F 1.5 °F -9.0 °F 39% 29.18 in 10.0 mi NNW 6.9 mph - N/A   Overcast
4:53 PM 12.0 °F 1.5 °F -8.0 °F 41% 29.15 in 10.0 mi NNW 6.9 mph - N/A   Overcast
5:53 PM 10.0 °F - -2.0 °F 58% 29.13 in 4.0 mi North - - 0.00 in Snow Light Snow
6:46 PM 8.6 °F - -0.4 °F 67% 29.11 in 2.5 mi North - - 0.00 in Snow Light Snow
6:53 PM 9.0 °F - 1.0 °F 70% 29.12 in 1.8 mi North - - 0.00 in Snow Light Snow
7:53 PM 8.1 °F - -0.0 °F 70% 29.10 in 3.0 mi North - - 0.00 in Snow Light Snow
8:53 PM 7.0 °F - -2.9 °F 64% 29.08 in 3.0 mi North - - 0.00 in Snow Light Snow
9:33 PM 6.8 °F -3.5 °F 1.4 °F 79% 29.06 in 1.5 mi North 5.8 mph - 0.00 in Snow Light Snow
9:53 PM 7.0 °F -3.3 °F -0.0 °F 73% 29.07 in 1.5 mi North 5.8 mph - 0.00 in Snow Light Snow
10:53 PM 6.1 °F -6.8 °F 1.0 °F 80% 29.06 in 1.0 mi North 8.1 mph - 0.00 in Snow Light Snow
11:53 PM 6.1 °F -0.9 °F -0.9 °F 73% 29.05 in 2.0 mi NW 3.5 mph - 0.00 in Snow Light Snow